Location: Newark
(50.1751°N, 5.6239°W)
Time: 23:33:15
(UTC+00:00)

ISS - Pass Details

Date: 01 October 2021
Orbit: 417 x 423 km, 51.6° (Epoch: 18 October)

Event Time Altitude Azimuth Distance (km) Brightness Sun altitude
Rises 19:49:54 0° 287° (WNW) 2,367 1.8 -18.2°
Reaches altitude 10° 19:52:05 10° 279° (W) 1,501 0.3 -18.5°
Maximum altitude 19:55:13 36° 211° (SSW) 682 -2.6 -19.0°
Enters shadow 19:55:46 33° 187° (S) 723 -2.7 -19.1°
